Theta_e
322 321 320 320 320 318 318 321 328 330 333 334 334 333 334 334 333 333 332 331 331 330 329 329 329 330 330 330 330 330 328 323 320 319 317 321 330 336 335 336 335 332 328 322 323 322 319 322 322 323 320 319 311 309 310 311 311 311 307 304 299 302 300 304 302 303 303 302 301 300 303 307 305 304 306 308 308 310 310 311 315 315 317 321 324 323 324 333
320 320 321 320 318 316 316 318 320 327 332 333 333 334 334 334 333 333 332 331 330 329 329 329 329 329 330 330 330 328 325 323 318 318 318 331 333 337 339 334 333 329 327 319 318 319 319 319 321 323 318 315 314 306 310 307 309 309 307 305 302 302 304 305 304 303 302 301 302 301 301 305 307 307 306 305 305 307 307 310 312 314 317 320 321 322 323 332
320 319 320 318 316 316 316 316 319 320 327 331 333 333 333 332 332 332 331 330 330 330 329 329 329 329 329 330 329 327 324 319 317 313 320 332 334 335 337 337 331 329 320 318 320 322 320 321 321 321 319 315 313 306 309 303 308 305 307 304 306 307 304 304 303 304 303 302 302 301 300 302 305 306 307 305 305 306 305 307 309 310 313 318 322 322 325 330
319 318 319 318 317 317 317 318 317 320 323 330 330 332 332 331 331 331 331 330 330 330 329 328 328 328 328 329 328 327 321 316 309 314 322 332 333 333 338 335 331 325 320 319 319 322 324 323 321 321 317 316 312 311 304 303 303 303 304 304 306 305 303 303 303 303 302 301 301 301 299 300 302 305 306 305 304 305 307 309 309 309 312 320 323 324 325 328
318 318 318 317 317 317 319 317 318 319 323 328 331 331 331 331 331 331 331 330 330 330 329 329 328 329 329 329 326 325 317 303 306 317 327 332 333 336 337 332 329 325 318 318 320 322 322 320 318 317 318 313 313 309 307 303 305 303 300 302 303 303 302 301 303 301 300 298 301 299 301 302 302 302 304 305 303 305 308 310 311 311 314 322 322 324 326 327
318 318 317 317 318 319 319 322 322 323 323 327 331 330 331 330 330 330 330 330 329 329 329 329 329 328 329 328 327 322 311 295 315 316 332 335 336 337 335 330 328 321 319 317 317 319 319 318 317 314 313 313 311 308 309 303 303 301 299 300 302 302 302 301 301 299 299 301 300 301 301 302 302 302 304 305 305 305 305 305 308 311 313 322 325 325 325 326
317 318 318 319 319 318 321 320 319 320 322 325 330 331 331 330 330 330 330 329 329 329 328 329 328 328 328 326 326 319 309 314 314 323 333 337 337 335 333 331 323 319 320 314 316 316 316 314 315 313 313 312 312 312 306 303 305 304 301 300 300 301 301 301 301 298 299 299 300 300 300 301 301 301 302 302 306 307 308 310 309 305 318 324 324 325 326 326
317 317 318 319 319 321 320 318 318 318 319 320 328 329 330 330 330 329 329 329 329 328 328 328 328 328 326 325 318 312 309 310 317 321 330 335 334 333 326 317 314 317 314 313 315 314 314 310 311 313 312 311 312 313 309 304 305 302 300 300 299 300 301 301 300 299 298 299 300 299 299 301 302 301 299 302 306 307 306 314 312 311 319 322 323 324 326 327
317 318 319 320 320 319 318 318 319 318 318 319 320 330 330 330 329 329 329 328 329 328 328 328 327 327 326 323 314 308 307 318 320 325 324 334 332 329 317 312 314 312 316 316 315 314 314 311 312 314 309 310 311 311 309 306 302 305 302 303 302 302 303 303 300 299 299 300 298 299 300 301 300 299 299 304 305 306 314 318 317 318 318 321 323 324 326 326
317 317 318 320 319 318 318 317 318 318 318 317 319 321 330 329 329 329 329 329 328 328 328 328 328 326 323 318 314 304 314 323 326 327 326 333 330 319 314 314 313 313 313 315 315 314 314 312 313 312 314 310 311 309 310 311 308 309 304 303 302 303 303 302 303 302 299 300 299 300 301 300 298 299 301 303 302 304 311 316 318 318 317 320 322 324 325 326
316 316 316 318 319 318 317 318 317 317 318 319 317 319 325 329 329 328 329 328 328 328 328 328 327 324 320 318 307 304 320 327 330 331 329 331 322 319 319 315 315 316 314 312 313 317 316 313 315 313 313 309 310 305 308 309 306 308 307 303 304 305 305 304 303 304 301 301 298 301 300 299 299 299 301 304 303 304 308 313 316 317 317 320 322 323 325 326
315 313 314 315 317 319 319 319 319 318 317 318 319 319 319 328 328 328 328 328 328 328 328 328 326 324 321 315 309 311 319 324 331 331 328 326 322 322 318 316 317 318 316 311 314 316 315 314 314 312 309 312 305 304 305 305 306 304 306 304 302 302 305 307 305 306 303 304 298 300 299 298 296 296 302 303 306 305 307 310 314 316 318 320 322 323 324 325
314 313 315 314 315 317 316 319 319 317 316 317 320 318 319 322 328 327 327 327 328 328 328 327 325 324 317 308 313 319 320 326 331 324 322 323 316 315 315 316 317 318 318 314 313 315 317 317 316 310 311 310 306 305 305 305 301 303 304 305 302 303 301 306 305 300 301 304 298 300 296 302 299 299 302 300 305 305 305 307 311 314 316 317 320 321 323 325
313 314 315 315 315 316 317 319 320 319 319 319 318 316 317 318 328 327 327 327 327 328 327 327 325 321 315 308 316 318 322 329 327 322 319 318 316 312 313 315 316 316 319 316 315 315 314 316 314 308 310 309 304 305 303 301 302 303 300 303 303 301 302 300 301 301 302 301 298 301 297 300 300 301 303 304 304 304 303 305 308 312 313 315 318 320 321 323
313 314 314 315 315 314 314 317 319 318 317 317 315 316 316 317 324 327 327 326 327 328 327 326 324 318 310 311 318 321 326 328 323 321 319 318 312 310 310 313 313 314 314 315 312 313 313 313 310 307 304 303 306 302 300 300 301 302 300 299 301 300 303 300 299 301 304 298 300 301 297 299 302 303 300 299 303 304 303 304 306 310 312 313 316 318 320 322
313 314 313 314 314 314 315 318 320 320 320 319 318 317 316 317 320 327 327 327 327 327 327 321 320 317 309 307 314 326 324 319 320 321 321 320 315 311 311 311 312 312 313 309 312 312 312 313 307 303 302 303 303 303 299 299 298 299 300 301 297 299 302 301 300 300 301 299 299 301 300 295 297 300 299 298 301 303 303 304 304 305 308 312 314 317 319 321
314 314 313 313 314 314 316 317 318 317 317 318 319 318 318 318 320 327 327 327 326 326 323 316 319 319 304 313 323 316 315 320 323 319 319 319 316 310 311 310 309 308 309 309 311 311 307 307 301 303 305 304 304 304 299 297 296 297 300 299 298 296 299 298 299 298 300 301 298 298 297 301 301 299 299 299 300 301 301 302 303 304 304 307 312 315 317 318
315 314 313 314 314 315 315 316 316 318 319 318 317 318 317 319 321 326 325 324 325 323 322 324 319 311 308 311 305 310 320 317 319 319 319 317 313 312 312 308 308 309 308 305 307 305 303 301 302 302 302 302 302 301 298 294 297 298 296 296 295 295 296 300 299 298 298 298 299 299 297 301 303 303 302 300 301 301 301 302 303 303 304 305 307 310 314 316
314 313 314 314 314 315 315 315 315 314 315 317 319 320 319 319 318 324 319 318 312 306 303 305 306 297 294 304 315 317 318 320 321 318 312 309 312 312 311 310 310 307 303 302 300 302 301 301 302 300 297 299 299 302 301 302 302 301 299 300 299 295 295 296 300 296 298 296 297 298 296 298 299 299 302 301 299 300 301 302 302 302 303 303 304 307 310 313
314 314 315 314 314 314 315 314 313 313 313 315 316 315 313 308 307 307 315 314 309 308 308 310 311 309 309 310 312 319 323 322 314 315 312 312 309 308 307 308 307 307 302 299 299 301 304 297 295 296 300 300 302 304 304 300 302 302 301 299 298 298 299 297 296 296 296 296 296 298 298 299 300 301 302 304 300 298 299 300 301 302 303 303 303 304 307 309
313 312 313 314 314 315 314 314 315 313 316 315 313 309 299 301 298 295 301 309 313 310 312 311 312 309 309 313 315 315 311 312 316 311 309 315 310 307 302 305 301 297 301 303 299 300 301 297 297 301 303 302 303 303 300 299 301 300 299 298 298 298 298 299 298 296 296 294 298 295 295 296 297 299 301 301 299 297 298 300 302 302 303 303 304 304 305 306
311 311 312 313 314 315 313 315 314 315 316 314 312 307 306 305 308 310 307 302 309 310 313 314 312 308 314 316 318 318 315 308 308 310 311 313 307 305 301 301 298 295 298 298 298 296 296 296 300 303 304 303 300 300 302 300 298 299 299 298 297 297 299 297 296 296 296 294 297 294 294 296 298 299 300 300 299 300 300 300 301 302 303 303 303 304 305 305
312 312 312 312 313 314 312 312 313 315 313 310 307 307 306 311 313 314 307 306 304 310 310 309 307 308 310 316 318 319 309 306 303 307 306 310 306 306 301 299 298 297 296 297 294 294 293 297 302 301 301 299 298 299 300 298 299 298 297 296 295 299 295 295 296 295 294 294 294 294 293 296 299 300 299 301 300 300 301 301 301 302 302 303 304 305 305 304
312 312 312 313 313 313 311 311 312 311 309 308 307 306 311 313 312 308 301 293 299 305 309 311 311 310 308 308 317 315 309 308 309 305 310 309 304 305 302 300 298 296 294 296 297 296 295 299 300 299 300 299 296 297 297 297 296 298 298 298 298 294 296 296 294 294 293 293 293 294 295 297 300 299 301 301 302 300 300 299 299 300 301 302 305 306 305 303
312 312 312 313 312 314 312 311 305 306 310 307 306 309 311 312 310 308 299 294 295 296 311 310 309 311 312 315 317 312 312 312 311 311 310 310 306 303 301 305 301 295 296 298 298 297 296 296 299 297 298 299 297 295 297 298 295 295 297 299 299 297 295 293 294 293 293 294 294 294 291 294 299 298 299 303 299 298 299 298 299 300 300 300 299 301 303 305
312 312 311 312 313 312 311 304 303 308 306 302 306 310 310 310 309 308 299 286 286 296 305 297 312 304 318 309 314 312 312 304 311 312 311 312 315 306 304 300 302 295 297 297 297 298 297 296 299 297 297 298 297 296 298 299 296 294 295 298 298 296 295 294 294 295 292 290 292 292 290 290 297 295 297 297 297 298 300 298 299 299 299 299 299 301 301 303
311 312 313 312 310 312 305 298 309 305 299 300 309 311 309 309 310 307 294 283 284 295 295 305 306 306 314 310 311 311 295 296 309 312 309 314 308 313 301 298 298 302 301 300 296 293 293 294 297 298 297 296 296 294 297 298 296 294 298 297 296 295 294 294 295 295 295 293 294 290 292 287 288 295 299 299 298 298 299 300 301 300 300 299 300 301 302 302
311 311 312 312 311 311 306 306 302 299 299 306 310 310 309 308 308 306 291 279 278 301 296 298 303 313 312 311 311 306 303 306 299 303 310 309 312 306 304 298 297 297 298 298 289 294 295 293 296 295 296 295 294 298 298 299 297 296 296 297 295 296 296 295 295 292 292 290 290 290 293 288 288 294 293 295 295 297 298 299 301 302 303 302 302 302 303 303
310 311 311 311 309 307 308 304 301 298 307 310 311 310 308 309 304 291 281 277 293 295 311 298 314 308 308 309 305 305 304 307 298 302 305 308 306 306 300 301 300 298 299 299 297 291 295 296 297 298 297 294 298 299 299 298 296 295 296 298 296 297 296 295 293 292 291 288 286 290 291 287 290 296 296 293 294 295 298 300 302 303 304 304 303 303 304 303
310 310 310 311 309 308 306 309 304 307 311 310 309 309 308 304 295 284 279 273 297 284 299 301 301 296 305 299 298 302 302 301 302 302 305 303 305 305 302 307 301 298 296 296 295 293 293 296 299 299 297 298 295 294 299 299 297 297 297 295 295 295 294 293 293 291 289 284 287 292 291 290 286 293 295 295 294 297 299 300 301 303 304 304 304 304 304 301
309 309 310 310 305 306 306 300 304 309 311 310 310 307 303 296 284 280 276 283 294 290 301 298 295 304 298 296 292 301 301 299 299 300 296 301 299 302 301 297 303 297 295 295 291 292 294 294 295 296 293 295 298 293 295 296 297 298 294 294 293 291 292 291 289 291 285 285 287 289 290 291 284 290 295 298 297 295 296 297 300 301 303 304 304 301 300 299
309 309 310 308 307 309 302 299 305 306 308 310 307 300 295 280 285 279 277 301 283 288 290 292 299 298 298 299 297 297 294 297 299 299 295 297 294 294 297 290 293 286 287 290 288 291 290 292 294 293 295 297 296 294 293 295 295 296 294 293 289 285 287 284 286 283 284 285 285 287 287 286 286 293 296 296 296 297 298 298 299 301 302 303 301 301 302 305
308 309 309 308 308 305 305 306 308 307 307 308 302 297 286 281 274 281 285 287 282 294 288 298 296 298 298 297 295 298 299 292 299 299 300 298 296 296 299 297 297 295 285 292 286 287 288 293 291 293 294 296 298 291 289 289 292 293 292 291 288 284 282 282 284 284 284 287 287 287 289 284 291 294 298 297 300 301 301 301 301 300 300 301 302 303 302 304
307 308 306 308 308 308 308 308 309 308 305 303 296 288 285 279 278 288 285 286 288 296 296 294 297 299 298 293 295 297 292 297 297 297 299 294 295 293 294 296 298 296 297 293 286 288 283 283 288 290 289 297 296 297 294 293 292 292 297 295 290 289 285 281 282 280 283 285 284 287 286 286 288 294 294 298 300 301 301 300 301 301 301 301 301 301 301 301
307 306 306 306 306 308 308 308 307 306 303 298 288 285 278 278 286 281 284 286 287 294 292 297 295 295 293 295 297 298 297 290 298 296 294 292 291 293 293 293 297 300 298 289 291 290 289 288 290 294 294 296 295 299 299 296 293 293 294 295 290 289 291 287 286 286 283 283 282 283 286 292 293 297 297 298 297 297 298 298 298 298 299 300 298 299 302 303
304 303 305 301 302 305 308 309 307 306 299 291 285 280 278 283 280 286 286 293 293 289 290 294 295 292 291 291 296 295 296 294 296 295 292 294 295 294 298 297 296 299 296 292 293 288 292 288 289 292 292 295 296 296 296 299 286 291 291 287 291 295 291 284 282 283 283 283 283 288 286 291 295 296 298 299 299 298 298 297 297 298 300 301 300 302 303 304
300 302 297 300 300 305 308 308 306 303 298 290 284 279 284 284 288 290 294 291 291 294 291 285 287 288 286 285 290 293 292 297 294 293 288 296 292 296 296 298 301 300 301 299 293 298 291 286 288 291 288 291 290 297 297 296 297 293 286 291 293 296 294 289 283 282 283 281 284 284 284 288 288 287 295 293 295 297 298 299 300 299 300 299 302 304 305 305
299 298 298 298 301 306 308 307 305 301 296 288 281 284 287 285 292 291 295 296 295 295 288 288 287 291 285 287 287 292 294 292 290 292 288 294 289 300 298 297 301 301 302 303 297 294 295 284 287 288 291 292 293 295 292 295 294 294 293 300 291 285 284 288 286 278 279 278 282 284 284 284 288 290 294 293 293 295 297 298 298 296 297 299 301 303 304 303
298 296 290 296 304 306 306 307 303 297 290 283 282 282 286 287 294 291 295 296 297 294 289 289 286 286 288 287 290 294 295 290 293 291 289 291 289 297 297 300 298 301 303 298 298 296 299 287 285 290 290 291 292 293 286 289 294 294 295 294 294 292 289 285 286 286 286 283 280 282 282 284 291 291 295 296 296 296 297 299 299 300 300 300 301 302 304 305
294 290 287 299 304 306 306 304 296 292 286 281 283 283 292 285 290 294 296 296 292 294 290 291 290 286 287 288 292 289 295 294 293 292 293 294 293 299 297 302 298 299 300 296 297 300 292 295 283 287 290 292 285 289 289 291 287 288 290 290 290 290 292 292 289 286 285 283 282 282 282 287 294 295 295 297 298 299 300 300 302 302 300 300 301 303 305 303
296 290 289 300 304 306 304 298 290 285 283 288 289 286 288 286 290 292 295 298 296 299 295 292 292 287 288 287 288 294 293 294 293 292 294 294 294 288 299 299 301 298 299 296 297 298 290 291 285 285 285 286 289 291 293 294 293 291 291 289 290 287 285 283 283 288 284 285 281 281 281 289 296 294 296 297 299 300 301 301 302 300 298 299 303 303 302 302
289 282 287 300 304 303 295 285 285 290 287 285 283 288 286 294 290 291 293 297 295 294 298 295 295 292 290 289 292 291 293 292 293 292 294 293 297 297 299 303 301 301 295 293 294 296 295 294 287 283 286 288 289 290 288 289 295 295 294 292 294 292 291 287 283 282 283 284 284 283 280 286 298 295 296 297 299 299 299 298 298 299 299 300 302 301 300 299
287 285 297 300 303 299 291 284 286 286 284 288 293 292 294 292 290 292 290 293 291 295 293 292 292 289 290 291 291 291 294 290 293 292 294 296 297 299 301 302 302 299 298 292 295 291 294 288 285 285 288 290 290 289 291 291 293 292 292 294 293 290 291 290 287 287 286 284 284 284 281 288 294 295 295 297 297 294 292 294 297 298 299 300 301 304 302 302
288 289 290 300 302 298 288 279 280 282 285 288 289 288 293 291 290 289 289 292 290 291 290 290 294 296 291 294 294 289 294 287 294 295 293 296 296 298 301 302 302 297 296 293 295 296 291 289 288 282 282 284 286 289 290 292 291 289 290 291 293 294 293 288 287 287 286 286 286 285 281 287 294 296 293 293 293 293 293 294 294 296 300 301 301 301 301 301
289 291 292 294 299 295 285 287 284 283 283 284 285 285 287 289 292 292 291 290 293 292 292 290 293 297 294 295 292 294 296 294 289 295 293 293 294 295 302 301 301 298 300 301 297 300 293 290 288 281 278 276 276 278 281 284 286 289 289 290 291 292 290 287 285 286 283 286 287 285 286 290 292 294 294 295 293 293 295 295 295 296 297 298 301 303 302 302
285 278 286 288 291 292 290 292 289 285 284 284 283 285 288 286 290 293 294 292 294 293 293 294 297 296 294 293 290 289 291 294 291 289 290 289 288 290 299 300 301 300 299 296 296 298 289 290 292 290 287 284 287 288 293 293 288 285 287 289 289 292 292 292 290 286 283 286 285 288 290 289 289 293 293 295 294 294 296 296 294 296 297 297 297 301 303 303
290 282 282 280 286 287 286 289 287 287 283 287 281 285 283 286 288 290 295 289 294 293 292 292 292 291 291 291 288 288 289 291 290 292 291 291 288 291 298 300 300 300 296 295 297 293 287 288 290 294 293 294 293 289 293 293 288 289 287 287 289 289 289 289 287 285 290 286 283 289 292 288 291 292 294 296 296 295 296 296 295 296 297 300 301 300 296 297
280 285 287 289 283 279 281 283 287 286 287 287 284 287 284 285 287 285 291 293 294 295 290 292 292 292 293 291 291 287 288 287 287 288 292 289 288 290 291 296 297 297 295 297 299 295 290 288 291 291 292 289 290 292 293 293 292 291 290 290 288 290 288 286 288 292 292 287 286 293 293 289 292 293 295 296 297 296 297 298 297 297 296 297 296 297 299 300
289 290 289 293 284 286 285 286 287 286 285 286 285 286 284 285 284 288 289 289 290 290 292 286 288 290 291 294 292 289 290 285 284 289 289 287 288 288 287 289 292 293 296 294 295 293 294 290 291 291 290 289 287 289 293 292 291 291 290 290 290 290 290 290 291 292 292 291 293 294 294 293 295 295 296 297 298 298 297 294 293 293 295 297 297 298 299 300
283 284 283 289 289 287 287 287 287 286 283 286 282 284 286 285 284 288 290 289 285 288 294 289 290 292 291 292 293 290 292 293 292 287 292 290 288 291 288 290 290 292 294 292 294 291 294 290 292 290 287 285 286 288 289 293 291 288 290 291 291 291 291 291 292 292 293 293 293 293 293 291 296 298 298 299 298 296 293 295 295 296 296 297 298 299 300 300
293 291 292 287 283 285 287 287 285 285 283 284 282 285 285 286 286 289 288 293 290 288 290 289 291 292 293 292 292 292 296 296 297 296 296 294 289 293 291 291 296 289 291 291 292 291 294 289 291 289 287 285 284 286 286 289 288 287 287 289 290 289 287 289 289 292 291 289 291 291 289 290 296 297 298 299 295 293 295 297 297 297 297 297 298 299 300 301
293 295 293 288 282 286 284 287 286 284 280 285 285 285 285 286 289 290 286 292 293 294 293 293 293 291 291 292 290 293 297 299 299 301 299 298 300 298 297 297 297 292 290 291 294 291 291 288 287 288 286 285 283 286 286 286 285 282 284 288 290 290 291 292 293 293 293 294 290 287 289 295 296 297 296 296 295 296 296 297 299 300 301 298 297 298 300 301
Wind_Speed
20 18 14 9 8 6 5 9 11 26 27 27 26 24 25 24 23 23 22 21 19 20 20 19 18 17 16 15 13 13 11 7 7 8 8 4 5 7 7 8 8 9 9 8 9 7 5 4 5 3 4 2 2 1 1 1 2 2 5 4 5 1 5 4 5 3 3 1 4 4 6 7 6 5 3 3 4 0 3 5 3 1 5 2 3 2 2 11
20 18 15 11 6 4 3 4 9 16 25 26 25 26 25 25 24 23 23 22 19 21 19 19 18 18 16 15 13 13 10 7 12 13 14 7 10 11 9 9 8 8 9 8 7 5 5 4 5 4 6 4 1 2 2 2 2 5 2 4 6 4 1 1 2 2 2 4 2 2 2 6 2 7 5 6 6 6 5 6 3 5 7 5 3 1 4 14
20 19 17 13 9 7 8 3 8 9 20 21 26 27 25 24 24 23 23 22 20 21 20 20 18 17 16 15 15 13 9 5 7 17 17 14 10 7 9 9 8 10 8 6 4 5 4 7 6 7 3 5 1 3 2 1 2 2 4 7 5 3 2 1 2 4 1 2 1 1 3 4 1 2 5 6 4 5 10 7 6 8 10 10 4 4 9 14
18 19 18 15 12 13 7 7 4 10 10 27 22 24 25 25 24 24 23 22 21 21 21 20 19 17 16 16 16 12 8 4 13 14 11 12 13 12 11 9 9 2 2 6 3 3 5 8 6 5 4 6 3 1 5 1 2 2 4 7 2 5 4 3 3 3 1 2 2 1 3 4 3 4 6 4 6 10 10 10 9 12 12 9 8 9 11 14
19 18 17 14 16 13 11 6 7 11 8 20 28 26 25 25 25 25 23 23 22 21 21 20 19 17 17 17 18 12 11 6 10 13 12 14 12 12 14 11 9 5 3 7 7 4 7 9 8 4 4 5 3 4 4 4 2 4 1 4 4 3 2 4 0 3 2 0 2 1 3 2 3 2 7 7 9 5 4 7 10 8 4 11 12 11 12 15
19 19 17 18 17 14 11 8 5 5 5 16 28 27 27 25 25 25 24 23 22 22 21 21 20 18 17 19 13 12 14 12 4 12 19 16 13 13 15 15 9 7 6 6 8 9 10 7 10 7 5 6 9 9 5 2 2 6 1 1 1 1 2 2 1 1 2 2 2 2 2 1 5 3 6 9 14 1 1 3 2 4 2 8 10 12 13 16
19 17 19 19 17 16 12 7 7 7 11 7 25 27 28 26 25 24 24 23 23 23 22 21 20 19 18 17 9 13 18 2 2 4 18 16 16 15 15 12 15 11 8 8 9 9 9 9 8 7 6 4 5 5 6 5 0 3 5 4 4 2 4 2 1 2 2 2 1 1 1 5 3 6 2 9 13 4 4 2 1 1 4 10 12 13 16 18
19 19 20 21 19 16 13 10 10 7 5 16 16 26 24 25 26 25 24 24 23 23 23 22 20 20 20 14 12 13 14 8 4 2 9 20 16 16 16 12 13 15 15 14 13 11 10 9 9 6 7 7 5 7 7 6 1 6 5 5 4 1 3 1 0 2 2 4 0 2 4 3 5 2 2 9 13 6 3 2 2 5 8 9 11 13 13 14
17 19 22 23 20 17 14 11 12 12 8 3 16 25 30 28 27 26 25 24 23 24 24 23 23 21 19 13 14 14 17 4 4 4 4 17 18 16 16 10 13 12 9 10 12 9 10 7 8 8 4 5 5 8 7 8 7 6 3 6 4 3 3 1 2 2 2 1 3 4 6 3 1 1 7 14 3 3 5 3 5 7 8 10 11 12 13 13
13 17 19 21 20 21 17 13 12 11 12 8 4 11 28 30 29 27 26 24 24 23 24 24 23 23 16 14 12 15 7 7 5 5 9 14 16 16 16 11 12 13 13 13 12 12 12 7 7 4 7 5 6 4 5 11 1 7 6 4 4 2 1 2 3 1 2 2 3 4 4 0 2 2 5 3 1 3 5 4 3 7 9 10 9 10 11 12
14 13 11 15 17 16 16 15 13 12 8 10 6 8 5 27 27 26 27 26 25 24 24 25 23 21 15 15 17 14 2 5 2 7 13 13 16 17 17 14 15 14 12 9 10 14 6 9 6 4 1 3 6 3 6 1 3 4 6 2 4 6 6 5 5 5 1 2 4 4 4 1 3 3 8 1 2 3 7 5 5 6 7 8 9 9 9 9
13 7 10 12 11 13 15 16 15 13 10 4 8 3 17 21 26 26 27 26 26 25 25 24 27 13 9 14 13 6 1 2 6 7 11 17 15 14 9 11 13 13 13 12 12 5 5 8 10 5 3 9 5 6 5 2 2 4 6 7 3 2 8 8 10 6 5 6 5 4 6 8 7 7 10 0 2 3 6 6 6 7 5 5 7 8 8 9
12 9 11 13 10 11 12 12 14 12 9 6 3 8 11 5 31 28 26 26 26 25 26 26 20 10 11 13 11 3 1 3 8 9 9 7 8 7 7 8 10 11 12 12 11 5 4 9 6 5 6 7 9 2 5 4 5 6 2 3 3 6 8 9 4 3 5 2 6 3 9 9 9 11 6 3 2 2 3 6 6 5 5 5 7 8 8 8
15 12 13 15 12 12 11 10 13 13 12 9 6 9 5 16 29 27 28 27 26 25 25 27 14 12 12 7 3 1 2 4 10 13 12 11 12 6 7 5 5 4 5 10 7 5 5 5 6 6 3 3 5 3 8 4 3 6 4 2 6 5 7 4 3 6 8 4 7 5 11 9 2 3 4 3 4 5 7 8 7 6 6 5 7 7 9 11
14 13 14 13 12 12 11 8 11 13 10 9 6 5 1 13 13 27 28 24 26 24 23 20 11 10 11 4 2 2 6 6 13 14 13 16 15 11 10 10 7 7 4 8 7 4 5 10 8 5 4 3 9 8 7 5 3 4 5 7 6 8 3 3 4 7 11 4 7 8 11 12 10 9 5 2 2 4 9 9 8 6 5 6 6 8 8 9
14 12 12 11 12 12 10 8 13 15 12 11 10 9 5 6 5 31 28 24 26 26 17 15 11 9 11 10 5 11 8 12 13 13 9 16 14 15 14 11 10 9 10 5 4 4 3 5 4 2 7 3 9 7 7 6 4 4 8 4 7 7 5 2 6 3 5 3 6 13 8 3 7 4 3 3 5 5 7 8 6 5 6 7 7 7 7 7
16 16 15 13 14 13 11 10 14 14 13 11 10 9 7 5 4 33 27 26 20 14 14 11 11 8 11 3 6 14 9 7 8 8 5 7 13 14 16 15 10 10 10 8 5 9 3 5 1 1 1 7 7 8 8 7 5 7 7 6 2 7 5 6 5 4 4 8 8 11 11 13 5 3 5 3 5 5 6 8 9 8 7 6 6 7 7 8
18 18 17 15 15 14 11 12 12 12 13 9 6 5 5 4 6 26 23 19 12 10 5 3 9 8 5 6 15 16 11 8 11 10 7 3 15 16 14 10 10 15 13 10 2 7 2 4 3 8 7 7 9 10 10 11 12 10 8 6 5 5 7 6 6 6 5 7 10 10 14 15 13 12 7 4 4 5 8 7 6 6 6 6 6 7 9 8
18 19 17 16 14 12 14 12 12 12 10 8 6 7 10 3 2 10 13 16 14 11 10 14 15 18 15 22 11 15 11 12 11 14 8 14 13 10 9 7 16 19 13 11 4 6 0 4 2 7 12 12 13 13 12 2 6 6 11 8 4 7 9 10 6 4 5 7 10 12 12 12 13 12 14 6 6 7 10 7 6 7 6 6 6 7 7 9
17 13 16 16 17 15 14 12 10 8 7 6 5 2 2 3 6 7 11 17 20 26 20 28 24 5 10 16 15 12 14 15 15 6 12 9 14 16 11 12 7 6 14 12 10 8 5 11 13 14 12 15 16 16 7 4 2 4 7 5 7 8 5 4 3 4 0 3 11 12 13 14 13 14 13 12 5 5 8 10 9 9 8 8 7 8 9 9
17 15 12 15 14 16 15 13 10 8 3 2 3 3 4 4 6 3 1 16 8 7 3 15 10 4 11 18 16 24 20 6 5 11 13 9 15 19 8 11 12 10 10 13 13 4 4 10 12 10 11 14 14 8 6 5 5 7 8 9 8 9 9 7 7 3 2 5 5 2 5 11 11 11 12 9 4 9 9 11 12 11 10 9 9 9 9 11
19 18 15 17 17 18 15 14 11 7 5 1 1 3 2 2 3 2 2 18 11 4 13 20 9 7 5 16 18 17 13 9 10 10 7 10 18 15 11 11 15 13 5 10 9 9 10 14 10 10 7 8 7 8 7 7 7 7 7 7 7 8 4 1 1 1 2 1 8 2 7 11 11 10 11 13 11 9 10 11 12 11 10 8 9 9 9 6
20 19 17 16 17 23 19 15 9 7 2 2 3 6 4 2 1 1 3 5 10 2 14 18 11 14 16 16 17 20 19 14 15 16 16 13 17 9 14 9 12 9 9 12 12 11 10 10 11 9 7 10 8 10 10 7 6 6 6 7 9 5 8 6 6 4 2 3 4 3 7 11 13 12 13 14 12 10 11 12 12 10 12 11 12 11 8 8
18 16 15 14 16 20 21 18 11 4 3 3 9 6 2 1 3 4 5 4 9 5 10 13 11 17 19 21 14 20 22 10 17 20 12 16 17 14 11 14 13 10 11 14 13 13 5 7 11 11 11 13 13 12 12 10 8 6 9 9 8 7 9 3 3 4 2 2 1 6 10 13 13 15 14 13 12 8 8 8 8 7 8 10 7 5 6 10
17 18 17 13 16 20 21 17 6 3 2 6 8 3 4 2 4 8 6 3 4 1 2 5 2 10 13 5 10 11 7 8 1 14 12 15 18 15 11 13 11 12 14 16 12 9 5 3 12 12 12 12 11 11 13 11 8 8 10 12 11 7 7 4 4 6 5 7 4 2 6 7 3 8 14 8 3 9 7 8 10 9 8 8 10 12 10 10
15 14 16 16 15 19 18 8 5 4 4 1 6 5 4 7 5 8 7 2 7 4 6 12 7 9 4 8 11 9 15 11 2 8 10 7 5 9 11 10 6 18 19 18 12 3 5 8 15 15 15 13 14 11 14 13 8 7 7 12 7 6 7 6 6 5 5 6 3 2 9 5 3 7 9 7 7 12 6 8 9 8 7 8 9 9 9 9
15 14 13 17 14 15 8 3 6 7 6 3 6 5 7 8 7 7 4 3 6 7 10 4 9 7 6 15 15 19 17 10 3 10 10 3 14 2 15 10 4 5 11 7 2 8 8 11 8 11 13 12 11 11 10 14 8 8 4 9 5 8 8 7 5 8 4 4 1 2 4 7 9 12 9 11 13 13 13 13 10 9 9 9 8 9 9 9
13 13 12 17 22 11 3 7 10 7 7 3 4 7 6 8 9 4 1 6 5 10 9 5 3 3 1 13 15 11 8 24 13 12 0 1 2 8 8 17 12 18 15 12 13 3 13 11 14 16 13 11 14 13 12 14 9 1 4 8 9 9 6 6 5 1 2 3 6 5 4 5 8 6 5 1 9 13 16 14 13 11 12 11 10 10 11 12
13 11 10 14 13 6 4 9 10 9 4 7 6 6 9 6 8 6 3 4 1 4 3 10 3 8 12 13 11 2 14 8 9 7 1 5 7 3 9 17 11 16 9 6 8 3 2 10 16 16 12 13 7 5 12 13 9 2 7 8 7 7 5 3 2 2 1 3 8 7 9 7 11 6 6 4 6 11 12 13 15 15 12 11 9 9 10 8
14 12 9 17 13 4 3 2 5 9 8 8 8 6 11 9 7 4 3 5 3 3 3 1 8 13 17 17 6 10 20 3 5 9 6 7 1 4 5 7 11 15 11 4 8 3 3 4 2 4 11 3 8 5 5 11 5 10 9 9 7 5 3 3 1 1 2 8 9 8 10 7 8 5 8 7 7 9 9 8 9 8 8 8 8 7 4 4
14 12 11 9 6 5 5 5 2 2 10 9 8 9 9 4 5 5 6 1 5 1 4 10 10 17 20 19 13 11 13 11 13 17 7 5 4 2 11 11 5 6 7 4 4 4 6 6 7 3 3 5 10 8 6 4 8 12 5 9 9 4 2 1 1 1 4 7 3 2 4 9 10 3 6 6 3 2 6 9 10 12 14 10 5 4 5 5
15 14 11 5 3 3 5 7 6 3 5 12 10 9 6 6 3 6 5 2 5 4 6 7 13 19 22 17 13 16 15 11 17 17 15 14 13 12 17 13 14 11 11 14 8 6 5 7 1 2 4 9 9 11 4 5 5 6 9 10 8 5 2 4 2 6 10 6 2 2 1 3 18 12 4 4 7 11 10 9 10 11 10 4 3 3 3 4
15 15 13 7 6 3 4 2 7 5 3 13 9 6 3 5 7 6 3 5 1 4 5 3 17 23 20 20 13 14 11 12 19 16 17 16 16 12 4 8 16 7 11 12 12 7 3 1 2 3 4 6 13 13 9 8 9 10 13 12 8 6 5 7 7 1 4 1 3 4 3 9 8 8 17 19 18 14 13 11 10 9 10 7 3 4 5 7
14 11 7 3 4 4 4 6 7 6 9 8 8 4 1 6 5 5 4 2 3 3 6 9 13 18 24 17 16 18 9 8 20 13 18 13 15 13 5 8 20 10 6 12 9 10 8 5 11 12 7 8 12 10 15 9 14 13 10 11 1 4 5 7 5 7 4 0 3 2 0 5 2 1 4 7 9 9 4 6 6 7 9 7 5 6 8 9
16 11 8 4 3 4 4 5 7 5 8 7 3 5 10 8 3 7 4 4 1 6 7 7 15 20 18 12 13 20 6 11 17 18 14 17 16 14 15 14 19 12 10 13 5 5 15 2 3 3 3 14 15 5 8 13 8 2 1 4 0 3 2 2 0 1 2 2 2 3 7 2 5 7 6 6 8 10 10 8 6 8 8 4 5 6 8 8
10 6 5 4 3 1 4 4 7 5 11 7 3 3 6 2 5 3 3 5 5 6 9 10 12 17 16 11 11 17 3 9 17 14 10 15 18 18 19 13 16 17 17 13 11 8 10 8 1 3 2 13 8 7 5 13 11 10 5 9 4 5 3 4 2 3 1 1 6 3 6 7 7 12 18 17 11 11 9 9 9 9 8 5 7 8 9 6
7 5 4 5 3 2 3 6 7 4 9 7 2 4 2 2 2 4 2 7 5 9 11 16 11 9 10 10 12 18 8 11 16 13 9 11 9 12 16 10 11 15 18 12 9 3 13 8 3 5 10 3 3 2 8 2 2 10 7 9 4 1 3 2 2 1 2 5 3 3 8 9 0 6 4 3 9 14 12 15 10 7 7 7 8 7 7 6
5 3 3 4 5 5 4 6 7 4 6 7 8 6 4 1 4 2 2 3 6 2 5 7 1 1 6 8 12 18 16 19 13 9 10 16 5 13 15 12 20 17 19 9 10 7 10 7 3 4 3 3 2 6 3 1 5 6 6 11 11 6 6 4 1 3 4 3 4 5 6 8 9 10 2 3 9 10 12 9 5 6 7 8 8 7 6 5
4 3 1 2 8 6 4 6 4 5 5 8 8 10 1 3 5 3 3 1 1 6 6 5 1 2 1 8 9 16 23 17 18 14 14 11 8 16 18 12 17 17 14 5 7 8 8 6 4 2 4 5 4 7 13 10 2 1 3 9 4 2 2 7 4 1 1 3 0 3 3 6 8 9 12 9 10 11 9 9 9 9 8 8 7 7 6 4
6 4 2 3 9 8 6 7 4 3 3 10 8 6 3 3 4 4 3 4 1 5 4 5 2 3 2 1 9 10 14 17 22 14 14 11 4 13 22 12 10 18 13 2 2 11 4 1 7 5 1 6 7 8 14 14 13 7 8 10 6 3 4 2 1 3 2 2 3 3 4 5 4 7 9 16 16 13 9 10 6 3 2 5 7 6 5 4
2 3 1 5 9 8 8 6 4 6 3 2 3 5 3 1 2 3 5 1 2 4 0 3 3 6 5 5 5 7 9 14 15 12 10 10 12 7 14 17 14 19 12 4 6 8 4 6 11 10 7 11 5 2 4 10 14 10 11 11 13 10 6 9 7 3 0 3 2 2 8 7 2 4 10 10 11 9 9 10 5 2 4 5 5 5 4 3
7 4 3 5 11 12 10 7 4 3 2 5 6 6 2 5 4 6 6 3 3 3 2 2 3 2 1 4 1 8 4 10 13 11 10 12 16 6 13 20 14 18 15 14 10 1 2 5 11 9 8 7 3 3 3 6 2 7 9 10 11 11 6 6 7 4 1 1 3 0 3 7 2 6 9 7 8 8 3 2 6 5 6 6 4 3 3 4
5 4 3 11 14 12 8 4 5 5 4 2 1 5 2 1 2 3 8 5 6 3 2 3 3 5 4 3 4 6 6 6 18 15 12 13 13 9 11 21 18 15 10 4 9 5 5 5 9 6 6 3 4 1 1 4 1 3 8 4 10 14 13 4 2 5 7 3 2 3 3 7 3 2 2 4 2 4 2 3 5 4 4 3 3 4 3 3
7 5 3 4 13 10 8 8 8 8 8 3 4 6 6 6 7 4 6 7 7 6 6 4 2 8 4 6 4 7 7 3 9 14 11 7 4 8 18 22 22 14 15 12 16 15 8 5 11 9 6 1 2 1 3 2 3 10 12 9 8 5 7 4 4 1 2 9 6 5 10 4 3 2 1 7 3 3 4 4 3 6 5 4 5 4 3 3
6 2 3 5 8 9 9 7 12 11 12 10 9 10 8 6 4 8 8 9 9 7 6 6 6 2 5 6 5 5 8 5 4 12 3 5 5 3 19 21 22 15 13 6 6 6 2 7 11 13 16 14 11 12 17 19 21 8 5 10 8 15 13 7 8 5 4 5 14 7 11 4 3 1 4 7 2 6 6 6 6 6 7 5 4 4 3 2
6 7 2 3 5 6 6 4 5 8 9 9 8 9 9 8 6 7 9 8 8 7 8 2 4 5 5 8 8 6 8 4 1 3 6 4 2 3 11 22 24 17 17 14 16 11 3 7 10 9 13 15 11 3 11 14 12 10 14 14 12 12 11 8 1 3 12 7 10 19 14 6 3 7 6 9 6 9 7 5 7 9 7 6 7 7 5 4
4 5 9 7 2 5 7 5 7 7 9 11 7 8 11 11 6 6 9 5 8 9 5 8 2 5 7 10 7 8 8 8 0 4 9 10 2 2 8 20 20 20 20 12 12 7 4 8 14 16 16 14 4 4 5 13 11 8 10 12 12 14 13 14 12 17 13 7 12 20 11 10 11 9 10 9 8 6 7 6 5 7 7 7 7 6 5 4
4 3 7 8 5 9 9 9 11 10 9 14 7 8 14 15 12 8 7 10 2 9 7 5 11 10 6 11 9 9 10 8 3 5 5 2 6 4 7 7 15 15 18 6 13 11 8 12 14 11 11 3 2 8 15 16 18 18 20 17 17 18 18 19 21 25 13 12 19 3 12 17 15 16 13 12 8 9 10 8 6 4 4 3 4 6 7 7
2 2 1 8 5 10 13 14 20 17 16 15 7 9 11 14 17 14 8 8 9 6 12 8 12 16 17 13 11 9 12 8 7 3 6 4 11 11 7 3 5 4 12 9 8 3 8 10 12 14 9 4 5 2 10 16 12 18 18 21 21 20 21 22 24 25 21 18 20 2 8 13 13 16 16 11 7 6 2 3 1 2 5 5 5 6 8 7
7 4 2 2 5 9 15 12 13 15 14 16 9 9 10 14 17 14 9 9 7 11 11 15 12 16 18 18 15 14 15 18 16 12 11 14 7 11 13 15 13 14 14 14 12 6 10 9 17 14 7 3 3 2 3 6 13 15 17 18 16 17 19 22 23 24 18 18 15 12 12 16 14 11 8 9 5 2 3 5 3 4 4 7 9 9 9 9
3 6 2 6 9 5 9 13 13 16 14 13 14 13 12 15 18 16 14 12 14 12 14 21 19 15 15 17 20 21 17 17 17 20 20 20 17 16 15 9 16 16 11 9 8 6 13 1 10 10 11 8 3 5 4 5 4 9 8 12 19 21 22 22 19 12 10 20 25 21 15 19 10 20 12 11 5 4 7 8 6 6 10 8 7 9 10 10
1 2 3 3 9 11 11 9 11 12 15 14 13 16 13 19 17 17 12 11 15 16 13 20 19 15 11 17 26 27 23 19 17 12 16 19 16 15 7 9 12 17 15 16 11 10 11 3 8 12 11 8 5 8 9 8 6 2 12 21 30 27 15 6 8 13 22 28 20 12 25 15 12 15 13 11 10 11 11 8 10 10 9 8 9 10 11 11
Wind_Direction
160 163 176 161 148 60 349 13 230 211 200 191 189 186 182 181 180 181 179 181 173 174 175 173 172 173 171 167 155 142 145 163 174 189 211 200 151 129 142 119 132 149 160 156 153 158 93 97 100 128 128 185 10 160 38 68 6 248 222 208 205 159 195 145 219 193 1 80 92 162 198 215 184 167 146 175 189 343 123 215 118 199 238 266 74 342 300 154
158 163 168 160 131 153 348 346 348 230 210 196 189 185 183 181 180 181 180 181 174 174 171 172 174 174 171 165 152 146 158 162 195 209 215 121 173 149 138 137 148 165 178 158 156 145 138 114 107 166 160 151 294 53 272 120 296 232 195 226 225 168 103 143 66 159 265 76 65 117 189 228 216 173 161 212 188 196 200 210 195 214 211 203 235 216 183 165
163 166 170 155 167 196 220 332 274 317 227 204 189 184 182 181 180 179 181 181 175 174 172 170 172 173 169 163 155 156 154 174 208 220 215 164 175 183 149 146 157 180 188 155 146 163 167 141 133 144 147 146 77 153 311 104 280 25 240 221 226 165 80 154 146 156 232 350 101 140 136 215 108 213 112 229 202 184 224 203 192 224 215 195 158 154 172 174
178 178 176 163 181 210 197 213 254 252 282 209 202 185 181 181 180 179 179 178 175 172 171 170 169 169 166 160 152 159 158 137 227 217 206 186 192 179 158 136 154 133 72 99 68 74 92 131 141 157 128 194 127 172 182 138 203 128 222 236 194 133 172 157 195 88 72 277 331 15 119 205 179 189 193 198 227 225 231 227 211 212 213 166 160 165 170 180
192 186 170 164 179 185 173 169 235 242 274 228 193 195 185 182 180 179 178 176 173 170 169 167 167 164 162 158 158 157 142 177 225 216 155 183 196 171 150 143 163 146 84 120 106 109 149 144 138 115 174 161 154 172 170 110 5 123 327 29 87 131 184 75 170 74 103 200 264 156 234 72 95 160 215 209 225 243 228 215 223 248 204 154 168 170 173 182
193 189 165 169 170 165 163 150 111 37 339 235 199 190 187 181 180 179 177 173 171 168 167 166 163 163 160 158 158 169 160 201 119 186 147 172 183 162 157 157 153 117 111 135 143 145 137 146 152 157 169 170 177 188 143 112 179 192 192 233 99 129 128 90 107 124 203 191 228 247 17 87 206 196 210 224 236 65 30 27 302 239 208 158 150 156 176 186
177 170 164 158 157 160 172 122 102 58 24 280 199 191 182 181 180 178 176 174 169 167 165 164 163 160 160 154 168 182 194 153 184 337 157 159 160 153 147 127 135 128 175 135 141 151 153 150 195 163 147 150 179 186 143 146 215 248 170 162 149 201 121 146 37 129 241 239 220 39 351 256 187 235 116 226 238 198 79 20 295 188 134 141 156 175 179 187
168 175 169 156 150 141 133 106 92 82 51 18 217 190 188 180 178 179 176 173 169 166 164 164 162 161 154 157 154 199 203 217 114 10 168 149 154 149 143 147 146 155 174 167 147 171 151 158 176 140 182 189 162 185 154 145 191 188 158 169 126 242 139 152 317 190 216 237 208 247 261 243 238 308 125 240 239 197 140 101 123 144 150 163 170 179 187 192
175 191 170 153 138 132 126 122 101 81 58 359 5 200 185 183 180 176 176 173 169 166 165 161 163 162 164 162 178 176 210 181 100 153 174 160 154 147 147 160 159 163 147 150 181 164 160 184 157 184 178 167 163 174 169 181 212 204 131 156 155 187 166 248 173 144 226 190 182 202 237 226 298 70 253 253 234 168 126 134 131 149 158 175 188 184 186 193
184 195 171 146 133 132 128 119 110 99 78 33 355 352 190 178 177 176 173 171 169 165 163 163 160 163 169 172 174 199 174 92 137 165 182 169 146 146 167 152 174 151 160 177 179 170 192 164 166 162 114 55 173 163 166 208 37 161 164 163 183 125 272 145 219 300 187 244 186 252 261 111 104 217 253 117 40 111 165 152 173 177 180 185 187 190 197 197
150 146 124 122 125 123 125 122 109 107 99 71 9 11 259 176 178 174 172 170 168 165 162 162 162 161 176 178 176 194 19 130 115 157 168 153 145 160 174 160 174 171 162 165 184 188 158 148 125 121 257 148 155 125 191 103 65 133 156 135 263 270 269 235 245 249 217 226 193 240 280 92 140 177 251 41 82 193 184 177 186 209 199 191 191 191 197 205
153 125 118 107 110 119 128 128 124 110 97 56 56 233 7 188 176 174 173 168 168 166 162 161 164 167 158 180 195 177 241 71 151 146 149 154 165 172 136 156 172 176 171 171 184 150 154 144 147 181 178 146 151 109 211 117 218 115 160 185 206 271 260 237 245 240 175 250 154 178 277 245 171 226 233 196 84 175 210 184 194 212 216 198 193 194 198 204
147 138 139 134 134 119 113 124 121 125 130 89 160 36 17 268 172 174 171 167 167 168 162 161 163 174 150 187 189 74 202 138 142 132 137 132 80 75 127 147 168 172 180 181 172 153 148 130 171 123 126 177 144 183 98 135 111 140 158 235 156 222 252 230 201 157 196 220 157 158 269 245 203 219 220 106 158 146 198 217 205 209 213 219 206 204 205 199
145 149 134 131 135 121 113 118 130 126 121 125 78 42 325 353 175 172 168 167 167 166 162 162 161 165 173 175 69 68 101 142 137 135 143 141 125 101 117 96 106 127 170 177 104 134 120 109 147 97 357 143 139 177 144 99 170 195 141 203 231 199 229 111 199 165 223 143 176 182 253 251 227 229 210 164 179 192 231 225 209 206 208 216 217 214 211 208
144 144 126 122 124 121 118 127 124 123 137 137 121 119 310 2 190 165 167 161 163 161 158 156 160 143 189 158 48 77 115 138 159 157 153 156 135 132 139 141 121 127 104 108 126 135 129 109 110 131 121 288 125 150 122 142 165 160 164 220 201 221 184 99 151 190 215 154 190 182 255 251 255 260 105 121 173 212 237 238 222 207 211 212 218 223 223 218
148 140 126 132 131 123 141 136 120 121 119 113 128 124 89 18 250 163 167 161 156 152 150 156 177 174 160 171 158 132 136 167 181 154 164 154 152 152 145 129 120 120 122 65 108 125 70 108 131 110 115 131 172 157 133 142 170 200 230 207 195 207 215 164 167 205 269 89 200 211 244 86 261 241 115 152 181 190 233 250 246 238 228 221 219 219 225 223
150 144 143 152 148 148 147 128 112 113 113 107 112 107 93 44 308 159 162 154 148 145 158 166 163 170 177 358 128 169 171 172 122 149 156 165 142 129 130 131 131 107 91 108 116 121 21 114 282 101 276 174 173 162 153 197 177 206 213 237 179 208 198 225 105 192 188 214 203 218 246 243 286 204 183 142 187 187 225 243 244 240 239 228 224 223 223 225
155 150 150 151 145 151 147 121 115 109 108 114 116 126 92 40 164 146 149 145 136 135 102 40 146 141 245 164 172 180 148 130 162 150 129 144 132 147 142 133 132 127 117 109 346 143 306 119 238 177 169 174 177 183 189 200 192 197 177 210 206 233 223 231 207 148 185 196 232 210 228 242 236 263 257 172 171 218 247 248 252 251 243 237 230 229 226 226
154 151 155 150 143 146 136 114 111 107 102 99 125 111 104 114 92 147 154 138 136 133 167 180 168 192 190 190 168 130 143 147 130 144 143 149 148 122 83 98 142 142 150 149 183 138 21 109 216 174 187 180 187 191 201 139 181 198 183 207 199 192 203 215 190 110 207 190 219 224 233 237 243 247 258 224 180 226 257 251 249 248 247 246 237 237 231 227
136 133 150 152 143 144 120 114 114 115 127 133 121 138 78 173 162 175 167 159 178 172 173 163 182 79 49 125 145 108 106 135 140 157 141 150 137 133 123 140 127 159 153 169 151 178 152 168 189 194 187 183 188 195 191 84 143 173 190 200 214 222 220 173 182 125 112 243 230 229 236 247 246 239 243 254 153 221 251 253 244 240 237 235 233 233 236 233
150 135 138 142 145 138 127 124 119 118 119 98 124 142 190 234 158 183 248 160 176 14 45 160 144 75 130 149 142 139 134 140 130 146 157 160 144 135 166 150 161 156 185 149 146 108 203 193 205 194 190 178 185 168 104 100 146 176 187 205 216 212 239 193 187 129 188 238 236 168 258 261 255 256 258 260 228 246 240 254 251 245 235 233 234 240 234 239
141 145 156 137 151 135 133 118 113 111 83 19 68 109 48 1 51 86 205 155 204 340 151 158 147 86 108 133 141 119 92 107 112 149 162 185 158 156 184 181 170 166 111 109 106 149 190 209 185 174 149 143 134 149 172 172 166 173 201 197 220 219 244 355 251 86 107 221 261 125 265 263 258 250 251 254 246 240 231 236 254 258 250 235 231 236 243 244
146 150 148 144 148 138 128 111 100 70 39 22 66 97 97 199 196 285 87 108 153 257 157 153 155 127 132 145 158 141 132 151 157 179 176 178 164 176 156 166 170 132 141 155 160 162 182 209 175 130 126 143 152 174 176 169 181 187 183 188 216 182 175 225 177 135 154 279 307 331 289 273 265 255 248 247 245 232 225 223 237 238 247 247 239 236 237 247
137 144 145 149 142 133 128 120 110 70 13 59 81 73 13 347 209 121 66 108 153 162 179 159 124 147 152 156 171 160 153 168 152 176 182 169 167 138 149 162 144 143 175 177 177 171 155 129 127 144 166 167 164 174 174 180 200 205 208 211 215 168 204 302 122 150 81 220 264 279 275 269 251 247 250 229 227 231 231 236 235 239 237 253 272 283 239 240
133 138 147 161 141 132 124 107 93 102 77 97 99 143 146 189 87 72 91 56 25 280 192 119 1 155 149 13 169 167 116 90 62 160 171 171 144 144 173 157 147 181 174 178 167 177 142 148 130 143 164 173 154 173 187 182 205 202 225 224 223 195 181 127 120 172 216 233 169 294 280 257 231 235 249 259 178 230 208 224 229 233 219 224 247 246 241 232
128 128 141 144 139 132 117 99 140 131 129 186 132 158 105 83 58 70 80 85 177 143 188 191 161 196 158 152 150 134 137 157 122 153 156 176 144 152 132 170 183 174 172 173 175 173 159 146 159 162 167 174 175 186 183 186 202 194 218 204 224 180 161 155 169 184 234 243 113 312 237 270 263 246 240 239 236 251 237 223 245 246 232 211 224 233 238 229
132 131 133 136 135 142 129 132 147 133 157 198 140 129 100 84 80 61 80 4 199 182 167 91 177 169 186 165 145 137 176 163 119 146 163 275 168 239 154 165 143 144 158 134 80 208 133 160 153 150 157 167 182 193 182 191 190 213 82 162 154 154 165 174 190 219 277 4 296 203 262 272 287 273 237 229 249 251 249 246 229 229 247 241 225 229 228 228
128 132 138 142 156 150 138 125 131 146 176 145 125 118 110 96 84 87 52 153 218 123 186 160 231 353 136 160 156 165 80 127 141 183 168 59 212 172 196 171 173 161 160 159 186 62 139 151 170 160 165 177 196 198 158 192 193 116 114 142 163 174 151 147 205 173 352 348 257 166 150 265 229 253 95 246 240 246 247 246 246 229 227 231 229 232 234 231
125 124 129 128 125 45 25 133 145 156 168 136 143 120 108 88 82 101 142 208 62 113 344 145 45 140 129 152 162 102 130 152 105 131 219 82 4 176 179 175 153 145 150 195 179 134 247 176 173 161 166 196 171 123 162 179 174 30 106 75 82 87 95 150 152 246 220 241 249 186 184 244 269 233 240 161 229 250 248 241 238 234 223 216 222 227 234 238
117 117 115 135 134 90 47 354 129 156 139 133 132 146 111 111 96 162 201 237 118 191 167 126 162 164 148 161 137 158 143 143 96 125 139 147 110 20 1 94 140 144 161 41 77 50 91 5 28 157 193 148 100 49 141 171 62 127 132 123 111 95 112 98 59 322 272 250 247 205 185 226 292 183 234 206 216 229 248 248 251 250 237 228 219 224 242 257
114 113 117 128 124 149 126 138 129 81 140 132 145 131 126 72 149 154 191 235 76 265 134 163 154 148 161 156 150 167 135 134 142 138 133 125 135 340 130 82 16 123 143 91 80 116 107 125 161 208 28 104 112 98 37 50 140 144 144 149 138 100 140 201 194 260 244 253 93 2 181 194 234 186 241 239 241 238 238 246 251 243 242 232 190 203 222 224
114 111 108 85 94 106 144 160 159 66 166 141 140 149 165 118 272 196 190 154 157 194 174 139 151 159 166 165 152 160 148 141 154 157 152 170 156 166 179 156 163 146 188 175 164 136 113 172 101 86 281 150 154 126 125 126 157 170 146 160 151 140 140 201 187 220 216 239 75 51 136 217 238 242 289 261 243 241 237 245 250 254 256 236 177 196 242 246
117 112 104 105 108 85 76 56 115 124 177 144 157 158 162 172 179 226 148 144 238 126 203 220 161 164 166 167 163 142 141 150 169 167 154 167 159 179 185 179 174 178 162 176 112 133 77 61 254 160 140 250 168 161 155 161 180 171 169 168 159 148 187 212 195 291 300 244 181 72 96 259 298 279 229 241 243 236 247 237 233 253 262 266 254 254 254 248
107 107 104 123 102 89 116 106 129 149 137 143 147 134 194 180 175 53 150 169 118 68 146 165 160 165 169 175 161 149 140 158 165 168 159 155 167 171 158 173 178 168 152 155 154 161 142 191 234 170 195 174 196 189 167 157 163 187 182 186 229 175 169 194 176 204 214 341 109 235 217 249 177 90 12 261 256 271 287 270 260 249 260 268 289 279 266 259
97 92 98 86 74 71 94 109 125 156 118 134 124 188 173 175 157 154 155 172 314 129 145 181 171 167 174 174 166 168 126 159 173 151 168 161 180 174 171 181 189 172 142 142 206 168 186 123 29 112 327 156 182 133 125 128 140 121 326 8 259 212 331 227 110 253 121 174 175 186 228 283 226 358 282 241 254 262 255 252 245 260 251 224 247 252 253 251
87 81 94 97 110 100 97 99 118 140 131 151 160 192 186 185 167 208 165 145 159 148 157 186 184 175 173 164 166 167 300 145 169 152 165 185 175 178 180 172 183 187 166 171 154 172 175 195 154 118 95 173 160 131 143 160 171 179 143 210 180 34 102 116 106 49 51 323 256 154 265 257 270 264 250 254 242 248 241 235 227 240 246 221 236 230 241 247
96 110 95 135 113 126 118 108 128 146 139 152 191 198 236 37 328 112 137 139 181 158 154 172 196 173 169 169 169 164 142 111 168 156 165 168 194 191 176 182 183 179 197 141 162 292 175 148 339 154 161 318 6 170 154 328 35 118 210 195 85 70 355 232 173 118 221 242 257 137 236 256 212 284 91 247 238 250 262 264 252 218 232 242 240 226 227 234
98 89 122 146 147 140 136 118 127 156 160 166 213 223 65 181 162 178 281 142 88 182 149 191 85 347 171 154 175 163 161 157 173 158 161 182 193 182 182 174 190 193 190 187 164 185 113 94 163 334 56 77 96 135 118 193 322 202 198 139 170 196 211 200 168 191 177 232 264 223 259 271 234 243 205 201 201 219 230 235 219 211 218 233 241 249 246 247
83 110 24 160 132 134 131 123 121 169 142 177 216 222 191 229 164 214 339 65 109 165 172 203 95 255 172 179 161 169 167 174 163 172 154 195 189 185 190 165 183 194 186 146 196 144 179 123 125 8 157 154 157 191 191 185 184 28 124 182 356 333 221 161 210 26 190 234 162 265 121 263 186 226 211 217 211 206 211 229 235 238 220 221 240 245 248 250
111 91 248 109 138 136 124 120 113 199 174 189 197 218 149 175 195 215 289 30 117 180 221 180 50 124 195 233 184 167 190 159 170 176 176 170 187 152 187 187 170 181 172 220 67 167 127 200 139 133 286 167 178 211 207 170 166 166 179 185 183 214 340 350 29 204 211 205 209 301 284 243 200 200 195 214 219 221 235 250 242 237 250 232 234 236 232 232
94 114 193 105 135 127 121 106 148 206 178 238 198 211 68 216 140 185 201 172 332 27 85 191 171 170 169 154 221 228 188 164 170 172 185 159 179 148 205 181 171 173 156 137 155 190 140 190 141 139 154 200 202 59 3 160 180 177 181 191 187 158 168 174 214 97 234 195 222 211 260 275 188 158 200 221 229 239 244 244 247 144 204 230 233 231 228 243
139 141 195 144 148 139 134 134 207 202 248 195 183 184 210 194 152 177 180 188 185 249 18 338 124 123 157 218 175 202 195 166 177 175 197 174 197 225 174 176 156 158 163 182 172 174 83 88 116 158 177 173 78 10 352 338 269 199 194 202 183 196 199 205 211 183 113 227 43 48 336 285 109 168 188 207 225 226 251 283 255 232 238 235 231 242 247 242
131 130 72 144 165 148 132 156 174 188 215 254 249 225 298 196 182 149 179 187 218 151 349 262 195 149 252 234 228 215 217 187 176 187 184 199 193 188 139 163 150 162 167 109 81 221 106 121 107 69 57 26 69 165 49 12 31 211 256 228 178 201 195 189 6 136 183 135 207 225 258 255 48 342 231 238 321 30 360 287 286 275 256 261 266 252 240 233
142 120 74 179 172 172 146 173 179 195 213 205 202 225 208 214 192 172 182 170 185 182 197 208 232 184 181 190 211 199 210 151 217 186 193 195 144 139 160 169 162 169 178 186 176 186 158 195 130 127 112 120 317 127 181 162 221 227 210 181 189 124 109 104 105 16 221 203 178 169 241 240 135 345 41 260 268 287 284 264 266 284 288 280 266 265 251 255
126 87 151 173 185 192 190 179 178 183 197 192 187 208 201 222 237 210 184 195 193 206 180 227 207 120 207 148 206 246 212 230 164 211 122 182 138 269 157 172 170 171 195 152 75 117 38 164 158 157 161 168 183 194 197 198 204 181 72 129 179 169 155 134 211 201 255 187 180 206 238 99 70 282 246 250 279 276 254 244 255 240 259 284 292 257 256 210
161 145 150 137 187 211 245 209 187 186 186 188 199 212 201 215 227 228 205 224 181 205 214 250 150 216 258 165 199 222 230 227 99 182 136 135 109 235 177 170 176 183 181 137 146 165 159 172 200 183 184 192 199 168 33 72 85 170 188 165 165 185 162 182 118 193 218 210 188 224 214 67 135 202 220 235 232 245 252 230 227 243 242 236 253 258 240 213
153 181 161 168 86 221 204 202 197 182 193 174 193 173 204 215 203 223 197 239 189 196 206 219 203 179 222 202 183 196 221 229 344 172 191 147 14 113 181 172 178 185 169 153 163 119 128 185 204 202 211 208 84 146 133 123 158 162 142 177 170 177 180 182 195 218 204 89 235 238 215 249 221 185 214 221 223 232 249 251 250 249 239 224 229 245 256 262
153 215 183 194 158 172 193 205 205 195 197 185 205 168 193 197 199 212 172 226 179 185 205 183 219 220 229 209 181 196 191 205 160 207 136 70 100 99 124 202 185 171 159 195 171 173 169 192 195 196 212 83 349 154 152 155 174 175 180 171 169 177 181 190 210 228 178 200 229 217 152 224 224 189 201 221 212 212 223 219 214 262 307 296 271 245 241 242
249 33 150 171 201 182 191 171 191 199 198 187 206 189 193 193 201 206 183 191 216 211 195 216 198 212 221 227 220 213 177 178 212 188 180 157 156 142 135 153 261 283 185 153 212 209 163 216 179 195 189 85 43 216 169 162 177 180 182 180 182 174 187 198 215 223 203 219 233 181 205 235 228 198 195 212 217 217 236 14 23 214 226 219 223 243 246 242
197 157 185 151 239 183 194 192 193 196 202 192 206 198 206 193 203 206 217 195 190 216 179 219 206 202 214 216 226 227 193 194 182 175 193 165 164 170 173 179 160 195 187 186 180 217 198 197 168 184 183 222 25 88 330 176 152 185 191 185 178 186 198 207 216 225 210 242 265 253 258 269 235 189 200 197 226 48 328 275 260 237 237 216 211 220 233 235
171 197 199 185 195 204 178 189 191 199 205 197 206 200 211 202 206 201 208 202 198 200 181 210 214 214 207 210 218 232 229 215 196 185 175 174 181 192 168 204 170 164 181 181 195 200 204 218 153 163 194 203 205 153 127 104 151 178 182 185 188 191 205 210 217 210 177 226 233 234 254 254 241 140 187 197 128 195 217 224 223 235 226 211 214 227 234 237
250 340 68 150 208 191 203 193 201 195 214 207 204 206 204 207 209 193 215 219 226 228 203 205 204 201 211 208 220 220 217 221 216 206 180 190 192 178 166 137 174 175 175 186 182 186 190 150 168 177 196 193 136 152 122 109 89 178 211 199 199 202 200 190 232 215 210 217 219 203 228 234 113 159 163 182 188 211 217 213 223 225 220 200 209 220 226 232